Find Starlink 5032

NORAD ID: 53895 Int'l Des: 2022-119 Owner: SPXS Country: US Constellation: starlink operational
LEOCIRCULAR

当前视图

正在加载3D地球...

About Starlink 5032

Starlink 5032 (NORAD 53895) is a starlink constellation satellite (v1.5) launched Sep 24, 2022 by SPXS of US. It operates in LEO, CIRCULAR orbit with a mass of 305.00 kg.

关于 Starlink 5032

正在加载描述...

即将过境

Passes for default location (London). Set your location on the main map for personalized predictions.

高度历史

Loading altitude history...

两行轨道根数

1 53895U 22119K 26170.58335648 .00622357 17095-3 16043-2 0 9999
2 53895 53.2123 198.5319 0001286 69.4115 305.9597 15.94640628 5926
Epoch: Jun 19, 2026 • Age: 7 hours

当前状态

高度 305.2 km
速度 7.72 km/s
星下点 -47.21°S, 152.32°W
发射日期 Sep 24, 2022
运行时间 3.7 years
类型 internet

技术详情

分类 Payload
质量 305.00 kg
干质量 290.00 kg
总质量 305.00 kg
长度 0.20 m
直径 2.80 m
跨度 9.00 m
形状 Box + pan
制造商 SPXS
平台类型 Starlink
阶段状态 In Orbit
所有者/国家 SPXS/US

Most Searched